Macomb, IL

1:18 PM CDT on September 17, 2019 (GMT -0500)
Macomb Municipal

Weather History for KMQB - August, 2019

Change the Weather History Date:

Saturday, August 24, 2019

  Actual Average (KBRL) Record (KBRL)
Temperature  
Mean Temperature 63 °F -  
Max Temperature 75 °F 85 °F 103 °F (1947)
Min Temperature 51 °F 66 °F 49 °F (1958)
Degree Days  
Heating Degree Days 2    
Growing Degree Days 13 (Base 50)    
Moisture  
Dew Point 55 °F    
Average Humidity 79    
Maximum Humidity 99    
Minimum Humidity 46    
Precipitation  
Precipitation 0.00 in - - ()
Sea Level Pressure  
Sea Level Pressure 30.21 in    
Wind  
Wind Speed 5 mph (East)    
Max Wind Speed 16 mph    
Max Gust Speed 20 mph    
Visibility 10 miles    
Events      
Averages and records for this station are not official NWS values.
T = Trace of Precipitation, MM = Missing Value Source: NWS Daily Summary

Daily Weather History Graph

Daily Weather History Graph

Search for Another Location

Airport or City:

Astronomy

Aug. 24, 2019 Rise Set
Actual Time 6:21 AM CDT 7:47 PM CDT
Civil Twilight 5:53 AM CDT 8:15 PM CDT
Nautical Twilight 5:18 AM CDT 8:50 PM CDT
Astronomical Twilight 4:42 AM CDT 9:26 PM CDT
Moon 12:14 AM CDT (8/24) 3:03 PM CDT (8/24)
Length of Visible Light 14h 22m
Length of Day
13h 25m
Last Quarter, 39% of the Moon is Illuminated
Aug 24
Last Quarter
Aug 30
New
Sep 5
First Quarter
Sep 13
Full
Sep 21
Last Quarter

Hourly Weather History & Observations

Time (CDT) Temp. Dew Point Humidity Pressure Visibility Wind Dir Wind Speed Gust Speed Precip Events Conditions
12:15 AM 55.8 °F 54.5 °F 96% 30.22 in 10.0 mi ENE 5.8 mph - N/A   Clear
12:35 AM 56.5 °F 54.7 °F 94% 30.22 in 10.0 mi NE 4.6 mph - N/A   Clear
12:55 AM 55.6 °F 54.5 °F 96% 30.22 in 10.0 mi Calm Calm - N/A   Clear
1:15 AM 55.0 °F 53.8 °F 96% 30.23 in 10.0 mi ENE 4.6 mph - N/A   Clear
1:35 AM 54.9 °F 53.4 °F 95% 30.23 in 10.0 mi NE 3.5 mph - N/A   Clear
1:55 AM 54.9 °F 53.6 °F 96% 30.24 in 10.0 mi ENE 3.5 mph - N/A   Clear
2:15 AM 53.8 °F 52.9 °F 97% 30.25 in 10.0 mi ENE 4.6 mph - N/A   Clear
2:35 AM 53.6 °F 52.7 °F 97% 30.25 in 10.0 mi ENE 3.5 mph - N/A   Clear
2:55 AM 52.9 °F 52.2 °F 97% 30.24 in 10.0 mi East 4.6 mph - N/A   Clear
3:15 AM 52.7 °F 51.6 °F 96% 30.25 in 10.0 mi ENE 5.8 mph - N/A   Clear
3:35 AM 53.2 °F 52.0 °F 95% 30.24 in 10.0 mi East 4.6 mph - N/A   Clear
3:55 AM 52.3 °F 51.6 °F 97% 30.24 in 10.0 mi Calm Calm - N/A   Clear
4:15 AM 51.8 °F 51.3 °F 98% 30.24 in 10.0 mi NE 3.5 mph - N/A   Clear
4:35 AM 51.8 °F 51.3 °F 98% 30.24 in 10.0 mi Calm Calm - N/A   Clear
4:55 AM 51.1 °F 50.9 °F 99% 30.23 in 10.0 mi NE 3.5 mph - N/A   Clear
5:15 AM 51.8 °F 51.3 °F 98% 30.24 in 10.0 mi NE 3.5 mph - N/A   Clear
5:35 AM 51.8 °F 51.3 °F 98% 30.24 in 10.0 mi NE 4.6 mph - N/A   Clear
5:55 AM 51.8 °F 51.4 °F 99% 30.25 in 10.0 mi NNE 4.6 mph - N/A   Clear
6:15 AM 51.4 °F 51.1 °F 99% 30.25 in 10.0 mi NE 3.5 mph - N/A   Clear
6:35 AM 51.8 °F 51.4 °F 99% 30.25 in 10.0 mi Calm Calm - N/A   Clear
6:55 AM 52.2 °F 51.8 °F 99% 30.25 in 10.0 mi ENE 3.5 mph - N/A   Clear
7:15 AM 54.1 °F 53.2 °F 97% 30.25 in 10.0 mi ENE 3.5 mph - N/A   Clear
7:35 AM 55.4 °F 54.0 °F 95% 30.25 in 10.0 mi ENE 4.6 mph - N/A   Clear
7:55 AM 56.1 °F 54.7 °F 95% 30.25 in 10.0 mi ENE 4.6 mph - N/A   Clear
8:15 AM 57.7 °F 56.1 °F 94% 30.25 in 10.0 mi East 4.6 mph - N/A   Clear
8:35 AM 59.0 °F 56.3 °F 91% 30.25 in 10.0 mi East 5.8 mph - N/A   Clear
8:55 AM 59.7 °F 57.4 °F 92% 30.25 in 10.0 mi East 5.8 mph - N/A   Clear
9:15 AM 61.0 °F 57.7 °F 89% 30.25 in 10.0 mi East 3.5 mph - N/A   Clear
9:35 AM 63.0 °F 57.7 °F 83% 30.25 in 10.0 mi ESE 6.9 mph - N/A   Clear
9:55 AM 65.3 °F 58.3 °F 78% 30.25 in 10.0 mi ESE 5.8 mph - N/A   Clear
10:15 AM 68.0 °F 57.9 °F 70% 30.25 in 10.0 mi ESE 6.9 mph - N/A   Clear
10:35 AM 68.7 °F 58.3 °F 69% 30.25 in 10.0 mi East 6.9 mph - N/A   Clear
10:55 AM 71.2 °F 57.7 °F 62% 30.24 in 10.0 mi ESE 9.2 mph - N/A   Clear
11:15 AM 71.6 °F 55.6 °F 57% 30.24 in 10.0 mi SE 10.4 mph - N/A   Clear
11:35 AM 72.3 °F 55.4 °F 55% 30.24 in 10.0 mi ESE 9.2 mph - N/A   Clear
11:55 AM 72.3 °F 54.3 °F 53% 30.22 in 10.0 mi East 16.1 mph 19.6 mph N/A   Clear
12:15 PM 73.0 °F 54.1 °F 51% 30.22 in 10.0 mi ESE 12.7 mph 17.3 mph N/A   Clear
12:35 PM 73.6 °F 54.3 °F 51% 30.21 in 10.0 mi SE 10.4 mph 16.1 mph N/A   Clear
12:55 PM 73.8 °F 54.9 °F 52% 30.21 in 10.0 mi ESE 11.5 mph 17.3 mph N/A   Clear
1:15 PM 73.8 °F 54.3 °F 51% 30.20 in 10.0 mi East 12.7 mph 17.3 mph N/A   Scattered Clouds
1:35 PM 73.9 °F 54.3 °F 50% 30.21 in 10.0 mi East 12.7 mph 18.4 mph N/A   Scattered Clouds
1:55 PM 75.0 °F 53.8 °F 47% 30.21 in 10.0 mi SE 9.2 mph 18.4 mph N/A   Scattered Clouds
2:15 PM 74.7 °F 52.9 °F 46% 30.20 in 10.0 mi ESE 9.2 mph 18.4 mph N/A   Scattered Clouds
2:35 PM 74.8 °F 53.2 °F 47% 30.19 in 10.0 mi ESE 12.7 mph 17.3 mph N/A   Clear
2:55 PM 74.5 °F 53.6 °F 48% 30.19 in 10.0 mi ESE 13.8 mph - N/A   Clear
3:15 PM 74.8 °F 55.4 °F 51% 30.18 in 10.0 mi ESE 11.5 mph 18.4 mph N/A   Clear
3:35 PM 74.8 °F 56.1 °F 52% 30.17 in 10.0 mi East 11.5 mph 18.4 mph N/A   Scattered Clouds
3:55 PM 74.7 °F 55.6 °F 51% 30.17 in 10.0 mi ESE 10.4 mph 18.4 mph N/A   Mostly Cloudy
4:15 PM 73.4 °F 55.6 °F 54% 30.17 in 10.0 mi ESE 9.2 mph 17.3 mph N/A   Scattered Clouds
4:35 PM 72.9 °F 55.2 °F 54% 30.17 in 10.0 mi East 11.5 mph 17.3 mph N/A   Scattered Clouds
4:55 PM 75.0 °F 55.6 °F 51% 30.16 in 10.0 mi East 13.8 mph - N/A   Scattered Clouds
5:15 PM 72.5 °F 55.2 °F 54% 30.16 in 10.0 mi ESE 6.9 mph - N/A   Scattered Clouds
5:35 PM 72.7 °F 55.9 °F 56% 30.16 in 10.0 mi ESE 6.9 mph - N/A   Scattered Clouds
5:55 PM 72.7 °F 55.8 °F 55% 30.16 in 10.0 mi East 9.2 mph - N/A   Mostly Cloudy
6:15 PM 70.7 °F 56.1 °F 60% 30.15 in 10.0 mi East 5.8 mph - N/A   Scattered Clouds
6:35 PM 69.8 °F 57.4 °F 65% 30.15 in 10.0 mi ESE 3.5 mph - N/A   Clear
6:55 PM 68.7 °F 58.1 °F 69% 30.15 in 10.0 mi ESE 3.5 mph - N/A   Clear
7:15 PM 68.4 °F 58.6 °F 71% 30.14 in 10.0 mi East 4.6 mph - N/A   Clear
7:35 PM 67.3 °F 59.0 °F 75% 30.14 in 10.0 mi Calm Calm - N/A   Clear
7:55 PM 65.7 °F 59.2 °F 80% 30.15 in 10.0 mi Calm Calm - N/A   Clear
8:15 PM 63.3 °F 59.2 °F 86% 30.16 in 10.0 mi ESE 3.5 mph - N/A   Clear
8:35 PM 60.4 °F 57.6 °F 90% 30.16 in 10.0 mi East 5.8 mph - N/A   Clear
8:55 PM 58.8 °F 57.2 °F 94% 30.16 in 10.0 mi ENE 4.6 mph - N/A   Clear
9:15 PM 57.6 °F 55.9 °F 94% 30.16 in 10.0 mi ENE 4.6 mph - N/A   Clear
9:35 PM 58.1 °F 56.1 °F 93% 30.17 in 10.0 mi Calm Calm - N/A   Clear
9:55 PM 57.6 °F 55.9 °F 94% 30.17 in 10.0 mi Calm Calm - N/A   Clear
10:15 PM 57.6 °F 55.0 °F 91% 30.17 in 10.0 mi ENE 4.6 mph - N/A   Clear
10:35 PM 56.3 °F 54.7 °F 94% 30.17 in 10.0 mi East 5.8 mph - N/A   Clear
10:55 PM 55.8 °F 54.5 °F 96% 30.17 in 10.0 mi ENE 4.6 mph - N/A   Clear
11:15 PM 55.4 °F 54.5 °F 97% 30.16 in 10.0 mi East 4.6 mph - N/A   Clear
11:35 PM 55.4 °F 54.5 °F 97% 30.16 in 10.0 mi East 3.5 mph - N/A   Clear
11:55 PM 55.6 °F 54.9 °F 97% 30.15 in 10.0 mi East 5.8 mph - N/A   Clear